Flag for Albania Weather past 2 weeks in Tirana, Albania

Now
63 °F

Sunny.


Feels Like: 63 °F
Forecast: 48 / 82 °F
Wind: 2 mph from North

Location: Tirana Airport

Current Time: May 30, 2015 at 9:19:13 PM

Latest Report: May 30, 2015 at 8:50 PM


Visibility: 10 mi

Pressure: 30.01 "Hg

Humidity: 77%

Dew point: 55 °F

Location of TiranaLocation

Historic Weather in Tirana — Graph

°F

Tirana temperature yesterday

Maximum temperature yesterday: 73 °F (at 2:50 PM)
Minimum temperature yesterday: 46 °F (at 4:20 AM)
Average temperature yesterday: 62 °F

Past Weeks' High & Low Weather Summary

 TemperatureHumidityPressure
High88 °F (May 16, 11:50 AM)94% (May 17, 4:20 AM)30.09 "Hg (May 17, 4:20 AM)
Low46 °F (May 29, 4:20 AM)25% (May 16, 11:50 AM)29.74 "Hg (May 27, 3:50 AM)
Average66 °F66%29.90 "Hg
* Reported May 15 8:20 PM — May 30 8:20 PM, Tirana, Weather by CustomWeather, © 2015

Note: Actual official high and low records may vary slightly from our data, if they occured in-between our weather recording intervals... More about our weather records

Advertising

Tirana weather history for previous 24 hours

 ConditionsComfort  
Time TempWeatherWind HumidityBarometerVisibility
8:20 PM
Sat, May 30
64 °FSunny.3 mph73%30.01 "Hg10 mi
7:50 PM68 °FSunny.5 mph64%29.98 "Hg10 mi
7:20 PM70 °FSunny.6 mph60%29.98 "Hg10 mi
6:50 PM72 °FSunny.7 mph53%29.98 "Hg10 mi
6:20 PM73 °FPassing clouds.7 mph47%29.98 "HgN/A
5:50 PM73 °FSunny.9 mph47%29.98 "Hg10 mi
5:20 PM75 °FPassing clouds.7 mph44%29.98 "HgN/A
4:50 PM75 °FPassing clouds.7 mph44%29.98 "HgN/A
4:20 PM75 °FPassing clouds.7 mph41%29.98 "HgN/A
3:50 PM75 °FPassing clouds.8 mph47%29.98 "HgN/A
3:20 PM75 °FPassing clouds.8 mph50%29.98 "HgN/A
2:50 PM75 °FPassing clouds.7 mph50%29.98 "HgN/A
2:20 PM75 °FPassing clouds.6 mph50%29.98 "HgN/A
1:50 PM75 °FPassing clouds.7 mph47%29.98 "HgN/A
1:20 PM75 °FSunny.3 mph47%30.01 "Hg10 mi
12:50 PM75 °FSunny.2 mph41%30.01 "Hg10 mi
12:20 PM73 °FSunny.3 mph41%30.01 "Hg10 mi
11:50 AM73 °FSunny.3 mph44%30.04 "Hg10 mi
11:20 AM73 °FSunny.No wind47%30.04 "Hg10 mi
10:50 AM73 °FSunny.2 mph47%30.04 "Hg10 mi
10:20 AM72 °FSunny.2 mph50%30.04 "Hg10 mi
9:50 AM70 °FSunny.No wind53%30.01 "Hg10 mi
9:20 AM68 °FSunny.2 mph60%30.01 "Hg10 mi
8:50 AM66 °FSunny.No wind56%30.01 "Hg10 mi
8:20 AM64 °FSunny.2 mph60%30.01 "Hg10 mi
7:50 AM61 °FPassing clouds.5 mph68%30.01 "HgN/A
7:20 AM59 °FPassing clouds.5 mph77%30.01 "HgN/A
6:50 AM55 °FSunny.3 mph82%30.01 "Hg10 mi
6:20 AM54 °FSunny.3 mph88%30.01 "Hg10 mi
5:20 AM50 °FClear.3 mph94%29.98 "Hg10 mi
4:50 AM50 °FClear.3 mph94%29.98 "Hg10 mi
4:20 AM50 °FClear.3 mph94%29.98 "Hg10 mi
3:50 AM50 °FClear.5 mph94%29.98 "Hg10 mi
3:20 AM52 °FClear.5 mph88%29.98 "Hg10 mi
2:50 AM52 °FClear.5 mph88%29.98 "Hg10 mi
2:20 AM52 °FClear.3 mph94%29.98 "Hg10 mi
1:50 AM54 °FClear.2 mph88%29.98 "Hg10 mi
1:20 AM54 °FClear.No wind88%29.98 "Hg10 mi
12:50 AM54 °FClear.2 mph82%29.98 "Hg10 mi
12:20 AM55 °FClear.3 mph82%29.98 "Hg10 mi
11:50 PM
Fri, May 29
55 °FClear.3 mph82%29.98 "Hg10 mi
11:20 PM57 °FClear.3 mph77%29.98 "Hg10 mi
10:20 PM57 °FClear.3 mph82%29.98 "Hg10 mi
9:50 PM57 °FClear.No wind77%29.98 "Hg10 mi
9:20 PM59 °FClear.No wind77%29.98 "Hg10 mi
Weather by CustomWeather, © 2015

See weather overviewHow to use our weather pages